Regional Weather Roundup
Issued by NWS

Home | Current Version | Previous Version | Graphics & Text | Print | Product List | Glossary Off
Versions: 1 2 3 4 5 6 7 8 9 10 11 12 13 14 15 16 17 18 19 20 21 22 23 24 25 26 27 28 29 30 31 32 33 34 35 36 37 38 39 40 41 42 43 44 45 46 47 48 49 50

000
ASUS43 KDTX 251910
RWRMI
MICHIGAN HOURLY REGIONAL WEATHER ROUNDUP
NATIONAL WEATHER SERVICE DETROIT/PONTIAC MI
200 PM EST SAT FEB 25 2017

NOTE: "FAIR" INDICATES FEW OR NO CLOUDS BELOW 12,000 FEET WITH NO
SIGNIFICANT WEATHER AND/OR OBSTRUCTION TO VISIBILITY.

MIZ047>049-052>055-059>063-066>070-074>076-081>083-252000-
SOUTHEAST LOWER MICHIGAN

CITY           SKY/WX    TMP DP  RH WIND       PRES   REMARKS
ADRIAN         CLOUDY    29  19  66 W21G28    29.74R WCI  16
ALMA           LGT SNOW  28  20  72 W21G26    29.66R WCI  15
ANN ARBOR      CLOUDY    30  19  63 SW22G33   29.68R WCI  17
BAD AXE        CLOUDY    32  22  68 W21G31    29.57R WCI  20
CARO           CLOUDY    31  21  68 W16G24    29.60R WCI  19
DETROIT CITY   CLOUDY    34  18  52 W21G36    29.64R WCI  22
DETROIT        CLOUDY    33  18  53 W26G36    29.68R WCI  20
FLINT          CLOUDY    30  20  66 W23G32    29.64R WCI  17
GROSSE ILE     CLOUDY    34  20  55 W18G32    29.67R WCI  23
HILLSDALE      FLURRIES  27  19  74 W20G29    29.71R WCI  13
HOWELL         CLOUDY    30  20  67 W25G31    29.66R WCI  15

CITY           SKY/WX    TMP DP  RH WIND       PRES   REMARKS
JACKSON        CLOUDY    28  19  69 W20G28    29.70R WCI  15
LAMBERTVILLE   CLOUDY    33  21  62 W20G30    29.73R WCI  21
LANSING        FLURRIES  28  17  63 W21G33    29.69R WCI  15
LAPEER         CLOUDY    31  20  64 W13G28    29.62R WCI  21
MASON          CLOUDY    29  21  73 W17G28    29.69R WCI  16
MONROE         CLOUDY    33  22  64 W26G35    29.69R WCI  20
MT. CLEMENS    PTSUNNY   34  21  60 W21G35    29.62R WCI  22
PONTIAC        FLURRIES  31  18  58 W18G30    29.62R WCI  19
PORT HOPE        N/A     32  26  78 W15G23    29.53R WCI  22
PORT HURON     CLOUDY    34  21  60 W17G25    29.61R WCI  23
TRI CITIES     CLOUDY    30  20  66 W24G33    29.62R WCI  16
MIDLAND        CLOUDY    31  17  58 W16G25    29.61R WCI  19
TROY           CLOUDY    34  17  50 W24G33    29.66R WCI  21
SAGINAW HB     CLOUDY    32  19  59 W18G29    29.62R WCI  20
$$
MIZ043>046-050>051-056>058-064>065-071>073-077>080-252000-
SOUTHWEST LOWER MICHIGAN

CITY           SKY/WX    TMP DP  RH WIND       PRES   REMARKS
BATTLE CREEK   LGT SNOW  26  20  77 W23G31    29.74R WCI  11
BENTON HARBOR  CLOUDY    26  16  65 W20G30    29.83R WCI  12
BIG RAPIDS     SNOW      24  18  80 W10G23    29.66R VSB 1/4 WCI  13
COLDWATER      CLOUDY    27  19  72 W24G30    29.76R WCI  12
FREMONT        LGT SNOW  24  18  80 W16G22    29.72R WCI  10
HOLLAND        LGT SNOW  25  17  72 W13G25    29.78R WCI  14
GRAND RAPIDS   LGT SNOW  25  18  74 W22G31    29.73R WCI  10
IONIA          FLURRIES  27  19  70 W22G30    29.70R WCI  13
KALAMAZOO      LGT SNOW  26  18  71 W18G30    29.77R WCI  13
LUDINGTON      FLURRIES  24  17  74 NW12G22   29.72R WCI  13
MARSHALL       LGT SNOW  26  23  86 W15G25    29.73R VSB 1   WCI  14
MOUNT PLEASANT CLOUDY    28  18  66 W17G25    29.64R WCI  16
MUSKEGON       LGT SNOW  24  17  74 W13G23    29.76R WCI  12
SOUTH HAVEN    LGT SNOW  25  19  78 W10G23    29.80R WCI  15
$$
MIZ016>042-252000-
NORTHERN LOWER MICHIGAN

CITY           SKY/WX    TMP DP  RH WIND       PRES   REMARKS
ALPENA         FLURRIES  28  19  69 W10G24    29.51R WCI  19
BEAVER ISLAND  LGT SNOW  24  21  89 W9G18     29.57R WCI  14
BELLAIRE       LGT SNOW  24  19  78 W12G23    29.62R WCI  13
CADILLAC       LGT SNOW  23  16  76 NW13      29.60R WCI  11
CHARLEVOIX     SNOW      24  21  89 W25G33    29.61R VSB 1/2 WCI   8
FRANKFORT      LGT SNOW  24  19  80 NW16G28   29.68R WCI  10
GAYLORD        LGT SNOW  24  16  71 W14G23    29.53R WCI  12
GRAYLING       LGT SNOW  25  18  76 W15G26    29.56R WCI  12
HARBOR SPRINGS CLOUDY    26  18  71 W21G28    29.55R HAZE    WCI  11
HOUGHTON LAKE  LGT SNOW  24  15  68 W20G29    29.58R WCI  10
MANISTEE       LGT SNOW  23  19  86 W17       29.70R VSB 3/4 WCI   9
OSCODA         CLOUDY    32  17  53 W23G32    29.53R WCI  20
PELLSTON       LGT SNOW  24  17  74 W22G30    29.54R WCI   9
ROGERS CITY    CLOUDY    28  21  78 W9        29.50R WCI  19
TRAVERSE CITY  LGT SNOW  25  19  78 W18       29.64R WCI  11
$$
MIZ007>008-015-252000-
EASTERN UPPER MICHIGAN

CITY           SKY/WX    TMP DP  RH WIND       PRES   REMARKS
KINROSS        LGT SNOW  21  18  86 W15G25    29.47R VSB 3/4 WCI   8
MACKINAC ISLAN FLURRIES  24  18  78 W22G32    29.50R WCI   9
NEWBERRY       LGT SNOW  21  18  86 W16G24    29.51R VSB 3/4 WCI   7
S. S. MARIE    LGT SNOW  23  16  74 W16G26    29.44R VSB 3/4 WCI  10
MUNISING         N/A     21  14  74 NW22G35   29.60R WCI   5
$$
MIZ004>006-011>014-085-252000-
CENTRAL UPPER MICHIGAN

CITY           SKY/WX    TMP DP  RH WIND       PRES   REMARKS
MANISTIQUE     LGT SNOW  22  18  82 NW16G28   29.58R WCI   9
ESCANABA       FLURRIES  25  14  63 NW16G25   29.64R WCI  12
MENOMINEE      CLOUDY    27  15  61 NW10G21   29.70R WCI  17
SAWYER-GWINN   LGT SNOW  19  12  73 NW21      29.60R WCI   3
$$
MIZ001>003-009>011-084-252000-
WESTERN UPPER MICHIGAN

CITY           SKY/WX    TMP DP  RH WIND       PRES   REMARKS
IRON MOUNTAIN  LGT SNOW  22  10  60 NW18G28   29.65R WCI   7
HOUGHTON       LGT SNOW  20  12  71 NW25G32   29.65R WCI   2
COPPER HARBOR    N/A     22  11  62 N21G29    29.63R WCI   6
IRONWOOD       LGT SNOW  17  10  74 W17G25    29.75S WCI   1
$$

ABBREVIATIONS USED IN REMARKS
   TC - TEMPERATURE IN CELSIUS
  WCI - WIND CHILL INDEX
   HX - HEAT INDEX
  VSB - VISIBILITY





USA.gov is the U.S. government's official web portal to all federal, state and local government web resources and services.